Project,Study,Ord_Occ,Event_Num,Cast_ID,Date_Time_UTC,Date_Time_PST,Lat_Dec,Lon_Dec,Sta_ID,Line,Sta,Depth,Pressure,PrQ,Temp1,Temp1Q,Temp2,Temp2Q,TempAve,Salt1,Salt1Q,Salt1_Corr,Salt2,Salt2Q,Salt2_Corr,SaltAve_Corr,Ox1,Ox1Q,Ox1_CruiseCorr,Ox1_StaCorr,Ox2,Ox2Q,Ox2_CruiseCorr,Ox2_StaCorr,OxAve_StaCorr,Ox1uM,Ox1uM_CruiseCorr,Ox1uM_StaCorr,Ox2uM,Ox2uM_CruiseCorr,Ox2uM_StaCorr,OxAveuM_StaCorr,FluorV,FluorQ,EstChl_CruiseCorr,EstChl_StaCorr,ISUSV,ISUSQ,EstNO3_CruiseCorr,EstNO3_StaCorr,SigThetaTS1,SigThetaTS1Q,SigThetaTS2,SigThetaTS2Q,BAT,XMiss,TransQ,pH,pHQ,SPAR,SPARQ,PAR,PARQ,PoT1,PoT2,DynHt,SVA,OxSat1,OxSat2,BTL_Depth,BTL_Temp,SaltB,OxB,OxBuM,Chl-a,Phaeo,NO3,NO2,NH4,PO4,SIL
CalCOFI,2007SR,068,69,2007_068d,26-Jul-2020 13:23:07,26-Jul-2020 05:23:07,35.08854,-120.77602,076.7 049.0,076.7,049.0,1.000,1.007,,14.1071,,14.1012,,14.1042,33.7357,,33.7359,33.7362,,33.7378,33.7369,5.6988,,5.9370,5.9824,4.3619,,6.4720,4.9641,5.4733,248.255,258.6653,261.1669,190.016,441.6515,216.8581,239.0125,0.7299,,8.2908,11.1879,-99.0,,-99.0,-99.0,25.1878,,25.1894,,1.4071,70.3434,,8.171,,2.0947E+01,,1.0792E+00,,14.1069,14.1011,0.0014,,97.570,74.672,1,14.099,33.7373,5.934,259.05,11.003,1.220,2.45,0.060,0.94,0.46,10.51
CalCOFI,2007SR,068,69,2007_068d,26-Jul-2020 13:23:19,26-Jul-2020 05:23:19,35.08854,-120.77602,076.7 049.0,076.7,049.0,2.000,2.015,,14.1102,,14.1101,,14.1102,33.7356,,33.7358,33.7361,,33.7377,33.7368,5.6770,,5.9142,5.9585,4.3803,,6.5159,5.0176,5.4881,247.307,257.6757,260.1250,190.817,439.3328,219.1892,239.6571,0.6585,,7.4241,10.0384,-99.0,,-99.0,-99.0,25.1871,,25.1875,,1.4166,70.1765,,8.172,,2.0947E+01,,8.5045E-01,,14.1099,14.1099,0.0053,,97.203,75.000,,,,,,,,,,,,
CalCOFI,2007SR,068,69,2007_068d,26-Jul-2020 13:23:22,26-Jul-2020 05:23:22,35.08854,-120.77602,076.7 049.0,076.7,049.0,3.000,3.022,,14.0938,,14.0928,,14.0933,33.7348,,33.7350,33.7351,,33.7367,33.7359,5.5959,,5.8295,5.8695,4.3908,,6.5410,5.0481,5.4588,243.772,253.9855,256.2398,191.276,430.6867,220.5250,238.3824,0.5829,,6.5098,8.8213,-99.0,,-99.0,-99.0,25.1900,,25.1904,,1.3682,71.0320,,8.169,,2.0947E+01,,6.7327E-01,,14.0933,14.0923,0.0081,,95.782,75.154,,,,,,,,,,,,
CalCOFI,2007SR,068,69,2007_068d,26-Jul-2020 13:23:24,26-Jul-2020 05:23:24,35.08854,-120.77602,076.7 049.0,076.7,049.0,4.000,4.029,,14.0447,,14.0520,,14.0484,33.7330,,33.7332,33.7327,,33.7343,33.7338,5.4957,,5.7248,5.7595,4.3997,,6.5622,5.0740,5.4168,239.406,249.4278,251.4413,191.662,420.0081,221.6483,236.5448,0.5876,,6.5665,8.8969,-99.0,,-99.0,-99.0,25.1989,,25.1971,,1.3305,71.7047,,8.163,,2.0947E+01,,5.4701E-01,,14.0441,14.0514,0.0109,,93.973,75.243,,,,,,,,,,,,
CalCOFI,2007SR,068,69,2007_068d,26-Jul-2020 13:23:26,26-Jul-2020 05:23:26,35.08854,-120.77602,076.7 049.0,076.7,049.0,5.000,5.036,,14.0071,,14.0097,,14.0084,33.7310,,33.7312,33.7311,,33.7327,33.7320,5.4538,,5.6810,5.7135,4.4023,,6.5684,5.0816,5.3976,237.579,247.5206,249.4333,191.772,415.5395,221.9685,235.7009,0.5074,,5.6001,7.6057,-99.0,,-99.0,-99.0,25.2052,,25.2047,,1.2688,72.8192,,8.158,,2.0947E+01,,4.8268E-01,,14.0064,14.0090,0.0136,,93.184,75.221,,,,,,,,,,,,
CalCOFI,2007SR,068,69,2007_068d,26-Jul-2020 13:23:28,26-Jul-2020 05:23:28,35.08854,-120.77602,076.7 049.0,076.7,049.0,6.000,6.044,,13.9667,,13.9681,,13.9674,33.7295,,33.7297,33.7300,,33.7316,33.7307,5.4177,,5.6433,5.6739,4.4048,,6.5744,5.0888,5.3814,236.005,245.8775,247.7034,191.883,411.6897,222.2915,234.9975,0.4665,,5.1088,6.9472,-99.0,,-99.0,-99.0,25.2124,,25.2125,,1.2349,73.4384,,8.152,,2.0947E+01,,4.2890E-01,,13.9659,13.9673,0.0164,,92.491,75.202,,,,,,,,,,,,
CalCOFI,2007SR,068,69,2007_068d,26-Jul-2020 13:23:30,26-Jul-2020 05:23:30,35.08854,-120.77602,076.7 049.0,076.7,049.0,7.000,7.051,,13.9326,,13.9336,,13.9331,33.7294,,33.7296,33.7298,,33.7314,33.7305,5.3519,,5.5745,5.6017,4.4043,,6.5732,5.0874,5.3446,233.136,242.8826,244.5502,191.856,404.6726,222.2129,233.3816,0.4552,,4.9732,6.7653,-99.0,,-99.0,-99.0,25.2195,,25.2195,,1.2084,73.9272,,8.149,,2.0947E+01,,3.8095E-01,,13.9316,13.9326,0.0192,,91.304,75.139,,,,,,,,,,,,
CalCOFI,2007SR,068,69,2007_068d,26-Jul-2020 13:23:32,26-Jul-2020 05:23:32,35.08854,-120.77602,076.7 049.0,076.7,049.0,8.000,8.058,,13.8848,,13.8877,,13.8863,33.7296,,33.7298,33.7295,,33.7311,33.7305,5.2941,,5.5141,5.5383,4.4058,,6.5768,5.0917,5.3150,230.616,240.2519,241.7806,191.920,398.5090,222.3992,232.0899,0.4236,,4.5945,6.2566,-99.0,,-99.0,-99.0,25.2296,,25.2289,,1.1718,74.6064,,8.144,,2.0947E+01,,3.5998E-01,,13.8837,13.8866,0.0219,,90.230,75.094,,,,,,,,,,,,
CalCOFI,2007SR,068,69,2007_068d,26-Jul-2020 13:23:34,26-Jul-2020 05:23:34,35.08854,-120.77602,076.7 049.0,076.7,049.0,9.000,9.066,,13.8302,,13.8341,,13.8322,33.7290,,33.7292,33.7288,,33.7304,33.7298,5.2566,,5.4749,5.4971,4.4060,,6.5772,5.0923,5.2947,228.980,238.5441,239.9825,191.926,394.5076,222.4166,231.1996,0.4091,,4.4209,6.0231,-99.0,,-99.0,-99.0,25.2404,,25.2394,,1.1431,75.1433,,8.138,,2.0947E+01,,3.4346E-01,,13.8289,13.8328,0.0247,,89.491,75.015,,,,,,,,,,,,
CalCOFI,2007SR,068,69,2007_068d,26-Jul-2020 13:23:36,26-Jul-2020 05:23:36,35.08854,-120.77602,076.7 049.0,076.7,049.0,10.000,10.073,,13.7557,,13.7556,,13.7557,33.7317,,33.7319,33.7321,,33.7337,33.7328,5.2234,,5.4402,5.4607,4.4017,,6.5670,5.0798,5.2703,227.529,237.0294,238.3878,191.736,390.9586,221.8637,230.1258,0.3998,,4.3097,5.8734,-99.0,,-99.0,-99.0,25.2579,,25.2582,,1.1228,75.5250,,8.133,,2.0947E+01,,3.1889E-01,,13.7543,13.7541,0.0274,,88.793,74.824,10,13.815,33.7370,5.471,238.83,6.217,1.140,4.16,0.080,1.23,0.56,11.49
CalCOFI,2007SR,068,69,2007_068d,26-Jul-2020 13:23:38,26-Jul-2020 05:23:38,35.08854,-120.77602,076.7 049.0,076.7,049.0,11.000,11.080,,13.7326,,13.7331,,13.7329,33.7323,,33.7325,33.7325,,33.7341,33.7333,5.1839,,5.3990,5.4173,4.3988,,6.5601,5.0714,5.2444,225.809,235.2339,236.4974,191.608,386.7518,221.4912,228.9943,0.3808,,4.0825,5.5675,-99.0,,-99.0,-99.0,25.2631,,25.2632,,1.1057,75.8496,,8.129,,2.0947E+01,,3.0560E-01,,13.7311,13.7316,0.0301,,88.081,74.741,,,,,,,,,,,,
CalCOFI,2007SR,068,69,2007_068d,26-Jul-2020 13:23:39,26-Jul-2020 05:23:39,35.08854,-120.77602,076.7 049.0,076.7,049.0,12.000,12.088,,13.6823,,13.6833,,13.6828,33.7331,,33.7333,33.7343,,33.7359,33.7346,5.1635,,5.3776,5.3949,4.3981,,6.5584,5.0693,5.2321,224.919,234.3048,235.5192,191.578,384.5749,221.4039,228.4616,0.3761,,4.0264,5.4918,-99.0,,-99.0,-99.0,25.2741,,25.2748,,1.0869,76.2065,,8.123,,2.0947E+01,,2.9340E-01,,13.6806,13.6816,0.0328,,87.645,74.655,,,,,,,,,,,,
CalCOFI,2007SR,068,69,2007_068d,26-Jul-2020 13:23:42,26-Jul-2020 05:23:42,35.08854,-120.77602,076.7 049.0,076.7,049.0,13.000,13.095,,13.6287,,13.6332,,13.6310,33.7355,,33.7357,33.7362,,33.7378,33.7368,5.1355,,5.3484,5.3642,4.3854,,6.5281,5.0324,5.1983,223.694,233.0261,234.1729,191.023,381.5788,219.7887,226.9808,0.3655,,3.8998,5.3212,-99.0,,-99.0,-99.0,25.2870,,25.2866,,1.0803,76.3328,,8.120,,2.0947E+01,,2.8147E-01,,13.6269,13.6314,0.0355,,87.075,74.364,,,,,,,,,,,,
CalCOFI,2007SR,068,69,2007_068d,26-Jul-2020 13:23:44,26-Jul-2020 05:23:44,35.08854,-120.77602,076.7 049.0,076.7,049.0,14.000,14.102,,13.6078,,13.6084,,13.6081,33.7370,,33.7372,33.7372,,33.7388,33.7380,5.0640,,5.2737,5.2857,4.3843,,6.5254,5.0292,5.1575,220.578,229.7733,230.7482,190.971,373.9575,219.6373,225.1928,0.3616,,3.8532,5.2584,-99.0,,-99.0,-99.0,25.2924,,25.2924,,1.0718,76.4958,,8.118,,2.0947E+01,,2.7427E-01,,13.6058,13.6064,0.0382,,85.826,74.308,,,,,,,,,,,,
CalCOFI,2007SR,068,69,2007_068d,26-Jul-2020 13:23:45,26-Jul-2020 05:23:45,35.08854,-120.77602,076.7 049.0,076.7,049.0,15.000,15.110,,13.5558,,13.5502,,13.5530,33.7365,,33.7367,33.7356,,33.7372,33.7370,5.0021,,5.2090,5.2178,4.3836,,6.5238,5.0272,5.1225,217.882,226.9589,227.7851,190.940,367.3634,219.5471,223.6661,0.3932,,4.2307,5.7671,-99.0,,-99.0,-99.0,25.3026,,25.3031,,1.0667,76.5922,,8.115,,2.0947E+01,,2.6822E-01,,13.5537,13.5481,0.0409,,84.689,74.207,,,,,,,,,,,,
CalCOFI,2007SR,068,69,2007_068d,26-Jul-2020 13:23:47,26-Jul-2020 05:23:47,35.08854,-120.77602,076.7 049.0,076.7,049.0,16.000,16.117,,13.4384,,13.4418,,13.4401,33.7406,,33.7408,33.7411,,33.7427,33.7418,4.8605,,5.0610,5.0624,4.3842,,6.5252,5.0289,5.0457,211.706,220.5118,220.9973,190.963,352.2578,219.6141,220.3057,0.3822,,4.0993,5.5900,-99.0,,-99.0,-99.0,25.3297,,25.3295,,1.0511,76.8913,,8.103,,2.0947E+01,,2.5826E-01,,13.4361,13.4396,0.0436,,82.096,74.056,,,,,,,,,,,,
CalCOFI,2007SR,068,69,2007_068d,26-Jul-2020 13:23:50,26-Jul-2020 05:23:50,35.08854,-120.77602,076.7 049.0,076.7,049.0,17.000,17.124,,13.3207,,13.3633,,13.3420,33.7415,,33.7417,33.7409,,33.7425,33.7421,4.4412,,4.6229,4.6022,4.4034,,6.5710,5.0848,4.8435,193.441,201.4450,200.9230,191.794,307.5842,222.0325,211.4778,0.3609,,3.8449,5.2471,-99.0,,-99.0,-99.0,25.3542,,25.3452,,0.9987,77.9075,,8.096,,2.0947E+01,,2.4730E-01,,13.3183,13.3610,0.0462,,74.833,74.260,,,,,,,,,,,,
CalCOFI,2007SR,068,69,2007_068d,26-Jul-2020 13:23:52,26-Jul-2020 05:23:52,35.08854,-120.77602,076.7 049.0,076.7,049.0,18.000,18.132,,12.9045,,12.9407,,12.9226,33.7480,,33.7482,33.7441,,33.7457,33.7470,4.3189,,4.4951,4.4680,4.4221,,6.6157,5.1391,4.8036,188.098,195.8674,195.0507,192.593,294.5160,224.3578,209.7043,0.2097,,2.0470,2.8128,-99.0,,-99.0,-99.0,25.4424,,25.4322,,0.9112,79.6304,,8.054,,2.0947E+01,,2.4208E-01,,12.9021,12.9383,0.0488,,72.155,73.932,,,,,,,,,,,,
CalCOFI,2007SR,068,69,2007_068d,26-Jul-2020 13:23:53,26-Jul-2020 05:23:53,35.08854,-120.77602,076.7 049.0,076.7,049.0,19.000,19.139,,12.6004,,12.6125,,12.6065,33.7578,,33.7580,33.7552,,33.7568,33.7574,4.3243,,4.5008,4.4739,4.4287,,6.6314,5.1583,4.8161,188.321,196.1002,195.2958,192.866,295.0614,225.1523,210.2241,0.1861,,1.7677,2.4329,-99.0,,-99.0,-99.0,25.5097,,25.5053,,0.8452,80.9541,,8.031,,2.0947E+01,,2.4109E-01,,12.5978,12.6099,0.0514,,71.796,73.546,,,,,,,,,,,,
CalCOFI,2007SR,068,69,2007_068d,26-Jul-2020 13:23:55,26-Jul-2020 05:23:55,35.08854,-120.77602,076.7 049.0,076.7,049.0,20.000,20.147,,12.5466,,12.5474,,12.5470,33.7609,,33.7611,33.7618,,33.7634,33.7623,4.3144,,4.4904,4.4630,4.4042,,6.5729,5.0871,4.7751,187.885,195.6451,194.8166,191.796,293.9951,222.0383,208.4275,0.1689,,1.5643,2.1559,-99.0,,-99.0,-99.0,25.5226,,25.5231,,0.8322,81.2174,,8.024,,2.0947E+01,,2.2947E-01,,12.5439,12.5447,0.0538,,71.552,73.043,20,12.594,33.7689,4.589,200.32,2.290,0.698,10.20,0.129,2.00,1.02,16.22
CalCOFI,2007SR,068,69,2007_068d,26-Jul-2020 13:23:57,26-Jul-2020 05:23:57,35.08854,-120.77602,076.7 049.0,076.7,049.0,21.000,21.154,,12.5144,,12.5168,,12.5156,33.7633,,33.7635,33.7646,,33.7662,33.7649,4.3105,,4.4863,4.4587,4.3712,,6.4942,4.9911,4.7249,187.716,195.4686,194.6308,190.358,293.5817,217.8534,206.2421,0.1947,,1.8694,2.5713,-99.0,,-99.0,-99.0,25.5307,,25.5312,,0.8217,81.4309,,8.019,,2.0947E+01,,2.2757E-01,,12.5116,12.5140,0.0563,,71.442,72.451,,,,,,,,,,,,
CalCOFI,2007SR,068,69,2007_068d,26-Jul-2020 13:24:00,26-Jul-2020 05:24:00,35.08854,-120.77602,076.7 049.0,076.7,049.0,22.000,22.161,,12.4945,,12.4940,,12.4943,33.7670,,33.7672,33.7680,,33.7696,33.7684,4.2863,,4.4611,4.4322,4.3392,,6.4178,4.8981,4.6652,186.659,194.3652,193.4691,188.964,290.9964,213.7965,203.6328,0.1827,,1.7275,2.3781,-99.0,,-99.0,-99.0,25.5374,,25.5383,,0.8195,81.4742,,8.018,,2.0947E+01,,2.1940E-01,,12.4916,12.4911,0.0588,,71.012,71.889,,,,,,,,,,,,
CalCOFI,2007SR,068,69,2007_068d,26-Jul-2020 13:24:02,26-Jul-2020 05:24:02,35.08854,-120.77602,076.7 049.0,076.7,049.0,23.000,23.169,,12.4656,,12.4654,,12.4655,33.7697,,33.7699,33.7706,,33.7722,33.7711,4.2540,,4.4273,4.3967,4.3190,,6.3695,4.8394,4.6181,185.250,192.8944,191.9206,188.082,287.5502,211.2297,201.5752,0.1588,,1.4449,1.9933,-99.0,,-99.0,-99.0,25.5451,,25.5459,,0.8170,81.5267,,8.015,,2.0947E+01,,2.1227E-01,,12.4625,12.4624,0.0612,,70.435,71.512,,,,,,,,,,,,
CalCOFI,2007SR,068,69,2007_068d,26-Jul-2020 13:24:03,26-Jul-2020 05:24:03,35.08854,-120.77602,076.7 049.0,076.7,049.0,24.000,24.176,,12.4198,,12.4151,,12.4175,33.7711,,33.7713,33.7695,,33.7711,33.7712,4.2161,,4.3877,4.3551,4.2998,,6.3237,4.7835,4.5693,183.599,191.1709,190.1060,187.244,283.5121,208.7909,199.4485,0.1697,,1.5737,2.1688,-99.0,,-99.0,-99.0,25.5551,,25.5548,,0.8149,81.5682,,8.011,,2.0947E+01,,1.9969E-01,,12.4166,12.4120,0.0637,,69.742,71.119,,,,,,,,,,,,
CalCOFI,2007SR,068,69,2007_068d,26-Jul-2020 13:24:05,26-Jul-2020 05:24:05,35.08854,-120.77602,076.7 049.0,076.7,049.0,25.000,25.184,,12.3484,,12.3437,,12.3461,33.7741,,33.7743,33.7759,,33.7775,33.7759,4.1988,,4.3696,4.3361,4.2849,,6.2881,4.7402,4.5382,182.842,190.3807,189.2740,186.592,281.6606,206.8934,198.0837,0.1892,,1.8044,2.4828,-99.0,,-99.0,-99.0,25.5712,,25.5735,,0.8168,81.5297,,8.005,,2.0947E+01,,1.9504E-01,,12.3452,12.3404,0.0661,,69.354,70.770,,,,,,,,,,,,
CalCOFI,2007SR,068,69,2007_068d,26-Jul-2020 13:24:08,26-Jul-2020 05:24:08,35.08854,-120.77602,076.7 049.0,076.7,049.0,26.000,26.191,,12.3068,,12.3037,,12.3053,33.7771,,33.7773,33.7786,,33.7802,33.7788,4.1897,,4.3601,4.3262,4.2572,,6.2220,4.6597,4.4930,182.446,189.9673,188.8388,185.385,280.6920,203.3808,196.1098,0.1459,,1.2926,1.7857,-99.0,,-99.0,-99.0,25.5815,,25.5833,,0.8087,81.6960,,8.000,,2.0947E+01,,1.7650E-01,,12.3034,12.3003,0.0685,,69.146,70.256,,,,,,,,,,,,
CalCOFI,2007SR,068,69,2007_068d,26-Jul-2020 13:24:10,26-Jul-2020 05:24:10,35.08854,-120.77602,076.7 049.0,076.7,049.0,27.000,27.198,,12.2937,,12.2910,,12.2924,33.7780,,33.7782,33.7791,,33.7807,33.7795,4.1352,,4.3032,4.2663,4.2360,,6.1714,4.5980,4.4322,180.071,187.4880,186.2285,184.461,274.8831,200.6917,193.4601,0.2052,,1.9937,2.7404,-99.0,,-99.0,-99.0,25.5848,,25.5862,,0.8117,81.6346,,8.000,,2.0947E+01,,1.6666E-01,,12.2902,12.2875,0.0709,,68.227,69.888,,,,,,,,,,,,
CalCOFI,2007SR,068,69,2007_068d,26-Jul-2020 13:24:12,26-Jul-2020 05:24:12,35.08854,-120.77602,076.7 049.0,076.7,049.0,28.000,28.206,,12.2703,,12.2692,,12.2698,33.7783,,33.7785,33.7796,,33.7812,33.7799,4.1007,,4.2671,4.2285,4.2169,,6.1258,4.5425,4.3855,178.568,185.9190,184.5766,183.628,271.2070,198.2675,191.4221,0.1462,,1.2961,1.7905,-99.0,,-99.0,-99.0,25.5895,,25.5908,,0.8002,81.8697,,7.996,,2.0947E+01,,1.5900E-01,,12.2666,12.2656,0.0734,,67.625,69.541,,,,,,,,,,,,
CalCOFI,2007SR,068,69,2007_068d,26-Jul-2020 13:24:13,26-Jul-2020 05:24:13,35.08854,-120.77602,076.7 049.0,076.7,049.0,29.000,29.213,,12.2422,,12.2429,,12.2426,33.7788,,33.7790,33.7795,,33.7811,33.7801,4.0949,,4.2611,4.2221,4.1996,,6.0845,4.4922,4.3572,178.315,185.6549,184.2986,182.872,270.5882,196.0673,190.1830,0.1298,,1.1026,1.5264,-99.0,,-99.0,-99.0,25.5953,,25.5958,,0.7925,82.0272,,7.991,,2.0947E+01,,1.4746E-01,,12.2384,12.2391,0.0758,,67.490,69.217,,,,,,,,,,,,
CalCOFI,2007SR,068,69,2007_068d,26-Jul-2020 13:24:16,26-Jul-2020 05:24:16,35.08854,-120.77602,076.7 049.0,076.7,049.0,30.000,30.221,,12.2343,,12.2341,,12.2342,33.7792,,33.7794,33.7805,,33.7821,33.7808,4.0830,,4.2486,4.2091,4.1798,,6.0372,4.4346,4.3219,177.797,185.1142,183.7293,182.011,269.3212,193.5616,188.6455,0.1231,,1.0236,1.4186,-99.0,,-99.0,-99.0,25.5972,,25.5982,,0.7923,82.0307,,7.991,,2.0947E+01,,1.4119E-01,,12.2304,12.2302,0.0782,,67.284,68.878,30,12.188,33.7827,4.182,182.57,1.450,0.769,12.39,0.143,2.28,1.19,18.12
CalCOFI,2007SR,068,69,2007_068d,26-Jul-2020 13:24:18,26-Jul-2020 05:24:18,35.08854,-120.77602,076.7 049.0,076.7,049.0,31.000,31.228,,12.2304,,12.2280,,12.2292,33.7794,,33.7796,33.7807,,33.7823,33.7810,4.0592,,4.2238,4.1829,4.1571,,5.9830,4.3686,4.2758,176.758,184.0296,182.5873,181.020,266.7800,190.6776,186.6325,0.1381,,1.2005,1.6601,-99.0,,-99.0,-99.0,25.5981,,25.5995,,0.7858,82.1640,,7.990,,2.0947E+01,,1.2761E-01,,12.2264,12.2240,0.0806,,66.885,68.495,,,,,,,,,,,,
CalCOFI,2007SR,068,69,2007_068d,26-Jul-2020 13:24:19,26-Jul-2020 05:24:19,35.08854,-120.77602,076.7 049.0,076.7,049.0,32.000,32.236,,12.2229,,12.2199,,12.2214,33.7789,,33.7791,33.7802,,33.7818,33.7805,4.0447,,4.2086,4.1670,4.1453,,5.9549,4.3343,4.2507,176.127,183.3709,181.8938,180.507,265.2367,189.1846,185.5392,0.1412,,1.2371,1.7100,-99.0,,-99.0,-99.0,25.5992,,25.6008,,0.7834,82.2134,,7.987,,2.0947E+01,,1.2561E-01,,12.2187,12.2158,0.0830,,66.636,68.289,,,,,,,,,,,,
CalCOFI,2007SR,068,69,2007_068d,26-Jul-2020 13:24:22,26-Jul-2020 05:24:22,35.08854,-120.77602,076.7 049.0,076.7,049.0,33.000,33.243,,12.2076,,12.2058,,12.2067,33.7790,,33.7792,33.7801,,33.7817,33.7805,4.0028,,4.1648,4.1210,4.1322,,5.9236,4.2962,4.2086,174.303,181.4668,179.8891,179.937,260.7754,187.5258,183.7075,0.1351,,1.1651,1.6118,-99.0,,-99.0,-99.0,25.6022,,25.6034,,0.7856,82.1678,,7.986,,2.0947E+01,,1.2122E-01,,12.2033,12.2015,0.0854,,65.925,68.054,,,,,,,,,,,,
CalCOFI,2007SR,068,69,2007_068d,26-Jul-2020 13:24:24,26-Jul-2020 05:24:24,35.08854,-120.77602,076.7 049.0,076.7,049.0,34.000,34.250,,12.1815,,12.1759,,12.1787,33.7790,,33.7792,33.7796,,33.7812,33.7802,3.9014,,4.0589,4.0097,4.1189,,5.8918,4.2575,4.1336,169.886,176.8559,175.0346,179.358,249.9721,185.8407,180.4377,0.1140,,0.9163,1.2721,-99.0,,-99.0,-99.0,25.6072,,25.6088,,0.7781,82.3213,,7.981,,2.0947E+01,,1.1795E-01,,12.1770,12.1715,0.0878,,64.220,67.793,,,,,,,,,,,,
CalCOFI,2007SR,068,69,2007_068d,26-Jul-2020 13:24:26,26-Jul-2020 05:24:26,35.08854,-120.77602,076.7 049.0,076.7,049.0,35.000,35.258,,12.1027,,12.0924,,12.0976,33.7794,,33.7796,33.7807,,33.7823,33.7810,3.8055,,3.9587,3.9045,4.1137,,5.8794,4.2424,4.0735,165.709,172.4955,170.4438,179.129,239.7557,185.1743,177.8091,0.1196,,0.9823,1.3622,-99.0,,-99.0,-99.0,25.6225,,25.6255,,0.7740,82.4074,,7.973,,2.0947E+01,,1.0788E-01,,12.0981,12.0879,0.0902,,62.539,67.589,,,,,,,,,,,,
CalCOFI,2007SR,068,69,2007_068d,26-Jul-2020 13:24:28,26-Jul-2020 05:24:28,35.08854,-120.77602,076.7 049.0,076.7,049.0,36.000,36.265,,12.0323,,12.0232,,12.0278,33.7796,,33.7798,33.7801,,33.7817,33.7808,3.5970,,3.7408,3.6757,4.1125,,5.8766,4.2389,3.9573,156.627,163.0148,160.4621,179.075,217.5424,185.0171,172.7396,0.1075,,0.8397,1.1674,-99.0,,-99.0,-99.0,25.6360,,25.6382,,0.7697,82.4953,,7.963,,2.0947E+01,,1.0559E-01,,12.0277,12.0185,0.0926,,59.025,67.471,,,,,,,,,,,,
CalCOFI,2007SR,068,69,2007_068d,26-Jul-2020 13:24:30,26-Jul-2020 05:24:30,35.08854,-120.77602,076.7 049.0,076.7,049.0,37.000,37.273,,11.8035,,11.7688,,11.7862,33.7801,,33.7803,33.7809,,33.7825,33.7814,3.4627,,3.6005,3.5283,4.1191,,5.8923,4.2581,3.8932,150.773,156.9038,154.0282,179.352,203.2244,185.8233,169.9258,0.0858,,0.5842,0.8181,-99.0,,-99.0,-99.0,25.6794,,25.6865,,0.7551,82.7971,,7.942,,2.1079E+01,,1.0399E-01,,11.7988,11.7641,0.0949,,56.549,67.219,,,,,,,,,,,,
CalCOFI,2007SR,068,69,2007_068d,26-Jul-2020 13:24:32,26-Jul-2020 05:24:32,35.08854,-120.77602,076.7 049.0,076.7,049.0,38.000,38.280,,11.5317,,11.5248,,11.5283,33.7896,,33.7898,33.7900,,33.7916,33.7907,3.4246,,3.5607,3.4864,4.1126,,5.8768,4.2392,3.8628,149.105,155.1626,152.1950,179.061,199.1447,184.9764,168.5857,0.1052,,0.8126,1.1304,-99.0,,-99.0,-99.0,25.7372,,25.7388,,0.7505,82.8915,,7.924,,2.0985E+01,,9.9303E-02,,11.5269,11.5200,0.0972,,55.610,66.772,,,,,,,,,,,,
CalCOFI,2007SR,068,69,2007_068d,26-Jul-2020 13:24:34,26-Jul-2020 05:24:34,35.08854,-120.77602,076.7 049.0,076.7,049.0,39.000,39.288,,11.4028,,11.3987,,11.4008,33.7967,,33.7969,33.7983,,33.7999,33.7984,3.3850,,3.5193,3.4430,4.0924,,5.8286,4.1805,3.8118,147.379,153.3608,150.2980,178.176,194.9231,182.4008,166.3494,0.0838,,0.5606,0.7859,-99.0,,-99.0,-99.0,25.7665,,25.7685,,0.7484,82.9358,,7.916,,2.1816E+01,,9.9227E-02,,11.3980,11.3939,0.0995,,54.820,66.270,,,,,,,,,,,,
CalCOFI,2007SR,068,69,2007_068d,26-Jul-2020 13:24:36,26-Jul-2020 05:24:36,35.08854,-120.77602,076.7 049.0,076.7,049.0,40.000,40.295,,11.3422,,11.3362,,11.3392,33.7971,,33.7973,33.7983,,33.7999,33.7986,3.3558,,3.4888,3.4109,4.0649,,5.7629,4.1005,3.7557,146.105,152.0309,148.8978,176.977,191.8071,178.9114,163.9046,0.0904,,0.6383,0.8921,-99.0,,-99.0,-99.0,25.7779,,25.7799,,0.7474,82.9573,,7.910,,2.2508E+01,,9.1151E-02,,11.3372,11.3312,0.1017,,54.277,65.738,40,11.239,33.8074,3.378,147.45,0.579,0.561,17.59,0.121,1.12,1.54,21.45
CalCOFI,2007SR,068,69,2007_068d,26-Jul-2020 13:24:38,26-Jul-2020 05:24:38,35.08854,-120.77602,076.7 049.0,076.7,049.0,41.000,41.303,,11.2862,,11.2824,,11.2843,33.7995,,33.7997,33.8010,,33.8026,33.8012,3.3255,,3.4571,3.3777,4.0420,,5.7083,4.0340,3.7059,144.783,150.6509,147.4448,175.978,188.5737,176.0041,161.7245,0.1118,,0.8904,1.2366,-99.0,,-99.0,-99.0,25.7900,,25.7919,,0.7471,82.9633,,7.907,,2.2555E+01,,9.5594E-02,,11.2812,11.2773,0.1039,,53.724,65.294,,,,,,,,,,,,
CalCOFI,2007SR,068,69,2007_068d,26-Jul-2020 13:24:40,26-Jul-2020 05:24:40,35.08854,-120.77602,076.7 049.0,076.7,049.0,42.000,42.310,,11.2494,,11.2410,,11.2452,33.8002,,33.8004,33.8010,,33.8026,33.8015,3.3061,,3.4368,3.3564,4.0195,,5.6546,3.9685,3.6625,143.939,149.7698,146.5172,174.994,186.5094,173.1404,159.8288,0.0914,,0.6501,0.9082,-99.0,,-99.0,-99.0,25.7973,,25.7994,,0.7421,83.0676,,7.904,,2.2848E+01,,9.4974E-02,,11.2442,11.2358,0.1061,,53.369,64.873,,,,,,,,,,,,
CalCOFI,2007SR,068,69,2007_068d,26-Jul-2020 13:24:42,26-Jul-2020 05:24:42,35.08854,-120.77602,076.7 049.0,076.7,049.0,43.000,43.318,,11.1997,,11.1957,,11.1977,33.8008,,33.8010,33.8023,,33.8039,33.8025,3.2858,,3.4156,3.3341,3.9950,,5.5961,3.8973,3.6157,143.054,148.8460,145.5446,173.926,184.3448,170.0323,157.7885,0.0818,,0.5371,0.7537,-99.0,,-99.0,-99.0,25.8067,,25.8086,,0.7404,83.1031,,7.901,,2.2851E+01,,9.2013E-02,,11.1944,11.1905,0.1084,,52.985,64.415,,,,,,,,,,,,
CalCOFI,2007SR,068,69,2007_068d,26-Jul-2020 13:24:44,26-Jul-2020 05:24:44,35.08854,-120.77602,076.7 049.0,076.7,049.0,44.000,44.325,,11.1772,,11.1760,,11.1766,33.7995,,33.7997,33.8007,,33.8023,33.8010,3.2056,,3.3318,3.2461,3.9707,,5.5381,3.8266,3.5364,139.561,145.1996,141.7056,172.869,175.8014,166.9562,154.3309,0.0806,,0.5230,0.7343,-99.0,,-99.0,-99.0,25.8098,,25.8110,,0.7359,83.1964,,7.898,,2.2851E+01,,9.1485E-02,,11.1718,11.1706,0.1106,,51.667,63.997,,,,,,,,,,,,
CalCOFI,2007SR,068,69,2007_068d,26-Jul-2020 13:24:46,26-Jul-2020 05:24:46,35.08854,-120.77603,076.7 049.0,076.7,049.0,45.000,45.333,,11.0771,,11.0734,,11.0753,33.7999,,33.8001,33.8009,,33.8025,33.8013,3.1707,,3.2954,3.2078,3.9528,,5.4953,3.7746,3.4912,138.038,143.6098,140.0317,172.087,172.0764,164.6804,152.3561,0.0631,,0.3172,0.4526,-99.0,,-99.0,-99.0,25.8281,,25.8296,,0.7311,83.2950,,7.889,,2.2851E+01,,9.1716E-02,,11.0716,11.0679,0.1128,,50.995,63.569,,,,,,,,,,,,
CalCOFI,2007SR,068,69,2007_068d,26-Jul-2020 13:24:48,26-Jul-2020 05:24:48,35.08854,-120.77602,076.7 049.0,076.7,049.0,46.000,46.340,,11.0318,,11.0302,,11.0310,33.8058,,33.8060,33.8079,,33.8095,33.8078,3.1674,,3.2919,3.2042,3.9336,,5.4495,3.7188,3.4615,137.895,143.4605,139.8745,171.250,171.7266,162.2445,151.0595,0.0695,,0.3924,0.5556,-99.0,,-99.0,-99.0,25.8409,,25.8428,,0.7329,83.2575,,7.885,,2.2851E+01,,8.5319E-02,,11.0262,11.0246,0.1149,,50.896,63.205,,,,,,,,,,,,
CalCOFI,2007SR,068,69,2007_068d,26-Jul-2020 13:24:50,26-Jul-2020 05:24:50,35.08854,-120.77602,076.7 049.0,076.7,049.0,47.000,47.348,,11.0264,,11.0254,,11.0259,33.8089,,33.8091,33.8106,,33.8122,33.8107,3.1630,,3.2873,3.1993,3.9118,,5.3974,3.6554,3.4274,137.702,143.2590,139.6624,170.301,171.2546,159.4827,149.5726,0.0636,,0.3230,0.4606,-99.0,,-99.0,-99.0,25.8443,,25.8458,,0.7328,83.2597,,7.883,,2.2851E+01,,7.9783E-02,,11.0207,11.0197,0.1171,,50.820,62.850,,,,,,,,,,,,
CalCOFI,2007SR,068,69,2007_068d,26-Jul-2020 13:24:52,26-Jul-2020 05:24:52,35.08854,-120.77602,076.7 049.0,076.7,049.0,48.000,48.355,,11.0267,,11.0263,,11.0265,33.8105,,33.8107,33.8120,,33.8136,33.8122,3.1601,,3.2843,3.1961,3.8842,,5.3316,3.5751,3.3856,137.576,143.1275,139.5239,169.097,170.9464,155.9787,147.7513,0.0750,,0.4571,0.6442,-99.0,,-99.0,-99.0,25.8455,,25.8468,,0.7337,83.2407,,7.883,,2.2851E+01,,7.2341E-02,,11.0209,11.0205,0.1193,,50.774,62.407,,,,,,,,,,,,
CalCOFI,2007SR,068,69,2007_068d,26-Jul-2020 13:24:55,26-Jul-2020 05:24:55,35.08855,-120.77603,076.7 049.0,076.7,049.0,49.000,49.363,,11.0293,,11.0279,,11.0286,33.8116,,33.8118,33.8133,,33.8149,33.8134,3.1402,,3.2635,3.1743,3.8562,,5.2647,3.4937,3.3340,136.710,142.2235,138.5721,167.880,168.8283,152.4370,145.5046,0.0618,,0.3019,0.4317,-99.0,,-99.0,-99.0,25.8459,,25.8475,,0.7328,83.2604,,7.883,,2.2851E+01,,7.0293E-02,,11.0233,11.0219,0.1215,,50.457,61.961,,,,,,,,,,,,